This demonstration page uses our WeatherBlox Daily Observations layout. Learn more.

39.92423, -83.80882

Hourly Observations for December 12, 2017

Temp ( °F °C ) Dew Point ( °F °C ) Humidity (%) Winds ( mph kmh ) Pressure ( in mb ) Visibility ( mi km ) Precip ( " mm )
12:56 am 00:56 Partly Cloudy 37 2.8 27 -2.8 67 67 W 18 30 29.69 1006 10 16.0934 0 0
1:54 am 01:54 Cloudy 37 3 28 -2 70 70 WNW 14 22 29.71 1006 10 16.0934 0 0
1:56 am 01:56 Cloudy 37 2.8 28 -2.2 70 70 WNW 20 31 29.72 1006 10 16.0934 0 0
2:48 am 02:48 Cloudy 34 1 28 -2 81 81 WNW 15 24 29.77 1008 8 12.87472 0 0
2:56 am 02:56 Cloudy 33 0.6 29 -1.7 85 85 WNW 14 22 29.76 1008 8 12.87472 0 0
3:32 am 03:32 Cloudy with Mist and Fog 34 1 30 -1 87 87 WNW 20 31 29.77 1008 5 8.0467 0 0
3:56 am 03:56 Cloudy with Mist and Fog 33 0.6 30 -1.1 89 89 WNW 17 28 29.77 1008 3 4.82802 0 0
4:12 am 04:12 Cloudy with Light Wintry Mix 32 0 30 -1 93 93 WNW 16 26 29.8 1009 2.5 4.02335 0 0.0254
4:39 am 04:39 Cloudy with Light Freezing Rain 32 0 30 -1 93 93 WNW 17 28 29.8 1009 2 3.21868 0 0.0254
4:56 am 04:56 Cloudy with Light Freezing Rain 32 0 30 -1.1 92 92 WNW 21 33 29.78 1008 2.5 4.02335 0 0.0254
5:17 am 05:17 Cloudy with Light Freezing Rain 32 0 30 -1 93 93 WNW 16 26 29.83 1010 3 4.82802 0 0.0254
5:39 am 05:39 Cloudy with Light Freezing Rain 32 0 30 -1 93 93 WNW 17 28 29.83 1010 4 6.43736 0 0.0254
5:56 am 05:56 Cloudy with Light Snow 32 0 30 -1.1 92 92 WNW 18 30 29.8 1009 2.5 4.02335 0 0.0254
6:07 am 06:07 Cloudy with Light Freezing Rain 32 0 30 -1 93 93 WNW 16 26 29.83 1010 3 4.82802 0 0.0254
6:16 am 06:16 Cloudy with Light Snow 30 -1 30 -1 100 100 WNW 18 30 29.83 1010 4 6.43736 0 0.0254
6:37 am 06:37 Cloudy with Light Snow 30 -1 28 -2 93 93 WNW 15 24 29.85 1011 9 14.48406 0 0.0254
6:56 am 06:56 Cloudy with Light Snow 30 -1.1 29 -1.7 96 96 WNW 14 22 29.83 1010 7 11.26538 0 0.0254
7:31 am 07:31 Cloudy with Light Snow 28 -2 27 -3 93 93 NNW 16 26 29.88 1012 9 14.48406 0 0.0254
7:48 am 07:48 Windy with Snow Likely 28 -2 25 -4 86 86 NNW 29 46 29.88 1012 2.5 4.02335 0 0.0254
7:50 am 07:50 Windy with Snow Likely 27 -3 25 -4 93 93 NNW 25 41 29.88 1012 0.75 1.207005 0 0.0254
7:53 am 07:53 Windy with Snow Likely 27 -3 25 -4 93 93 NNW 21 33 29.88 1012 0.5 0.80467 0 0.0254
7:56 am 07:56 Windy with Snow Likely 26 -3.3 24 -4.4 92 92 NNW 25 41 29.88 1012 0.5 0.80467 0 0.0254
8:01 am 08:01 Windy with Snow Likely 27 -3 25 -4 93 93 NW 20 31 29.88 1012 0.75 1.207005 0 0.0254
8:09 am 08:09 Cloudy with Light Snow 27 -3 25 -4 93 93 NW 14 22 29.91 1013 1 1.60934 0 0.0254
8:14 am 08:14 Cloudy with Light Snow 27 -3 25 -4 93 93 NW 16 26 29.91 1013 1.25 2.011675 0 0.0254
8:20 am 08:20 Cloudy with Light Snow 27 -3 23 -5 86 86 NW 15 24 29.91 1013 3 4.82802 0 0.0254
8:31 am 08:31 Cloudy with Light Snow 27 -3 23 -5 86 86 NW 15 24 29.91 1013 9 14.48406 0 0.0254
8:56 am 08:56 Cloudy 26 -3.3 20 -6.7 78 78 NNW 23 37 29.9 1013 9 14.48406 0 0.0254
9:56 am 09:56 Cloudy 24 -4.4 13 -10.6 62 62 NNW 17 28 29.93 1014 10 16.0934 0 0
10:56 am 10:56 Cloudy 24 -4.4 13 -10.6 62 62 NNW 23 37 29.94 1014 10 16.0934 0 0
11:56 am 11:56 Mostly Cloudy 26 -3.3 16 -8.9 66 66 NNW 16 26 29.94 1014 10 16.0934 0 0
12:56 pm 12:56 Mostly Cloudy 24 -4.4 14 -10 65 65 NW 14 22 29.93 1014 10 16.0934 0 0
1:43 pm 13:43 Windy with Snow Likely 27 -3 16 -9 64 64 WNW 25 41 29.94 1014 2.5 4.02335 0 0.0254
1:47 pm 13:47 Windy with Snow Likely 25 -4 18 -8 74 74 NNW 20 31 29.94 1014 0.75 1.207005 0 0.0254
1:54 pm 13:54 Cloudy with Light Snow 21 -6 18 -8 86 86 NW 15 24 29.97 1015 0.5 0.80467 0 0.0254
1:56 pm 13:56 Cloudy with Light Snow 22 -5.6 19 -7.2 89 89 NW 13 20 29.93 1014 0.5 0.80467 0 0.0254
1:59 pm 13:59 Cloudy with Light Snow 23 -5 19 -7 86 86 NW 13 20 29.97 1015 1 1.60934 0 0.0254
2:01 pm 14:01 Cloudy with Light Snow 25 -4 19 -7 80 80 NW 13 20 29.94 1014 2.5 4.02335 0 0.0254
2:06 pm 14:06 Cloudy with Light Snow 25 -4 19 -7 80 80 NW 13 20 29.94 1014 9 14.48406 0 0.0254
2:56 pm 14:56 Cloudy with Light Snow 22 -5.6 15 -9.4 75 75 WNW 13 20 29.93 1014 9 14.48406 0 0.0254
3:10 pm 15:10 Cloudy with Light Snow 21 -6 16 -9 80 80 WNW 18 30 29.97 1015 2.5 4.02335 0 0.0254
3:19 pm 15:19 Cloudy with Light Snow 21 -6 16 -9 80 80 WNW 16 26 30 1016 1.5 2.41401 0 0.0254
3:22 pm 15:22 Cloudy with Light Snow 23 -5 18 -8 80 80 WNW 17 28 29.97 1015 2 3.21868 0 0.0254
3:31 pm 15:31 Mostly Cloudy with Scattered Snow Showers 25 -4 18 -8 74 74 WNW 15 24 29.94 1014 9 14.48406 0 0.0254
3:39 pm 15:39 Windy with Snow Likely 25 -4 16 -9 69 69 NW 21 33 29.94 1014 9 14.48406 0 0.0254
3:43 pm 15:43 Windy with Snow Likely 23 -5 16 -9 74 74 WNW 21 33 29.97 1015 1 1.60934 0 0.0254
3:49 pm 15:49 Cloudy with Snow 21 -6 18 -8 86 86 WNW 12 19 30 1016 0.5 0.80467 0 0.0254
3:52 pm 15:52 Mostly Cloudy with Scattered Snow Showers 21 -6 18 -8 86 86 WNW 14 22 30 1016 1.25 2.011675 0 0.0254
3:56 pm 15:56 Mostly Cloudy with Scattered Snow Showers 22 -5.6 17 -8.3 82 82 WNW 16 26 29.94 1014 2.5 4.02335 0 0.0254
4:03 pm 16:03 Cloudy with Light Snow 21 -6 18 -8 86 86 WNW 12 19 30 1016 9 14.48406 0 0.0254
4:37 pm 16:37 Cloudy 23 -5 16 -9 74 74 WNW 20 31 30 1016 9 14.48406 0 0.0254
4:46 pm 16:46 Cloudy with Light Snow 23 -5 14 -10 68 68 NW 17 28 30 1016 2 3.21868 0 0.0254
4:50 pm 16:50 Cloudy with Light Snow 21 -6 16 -9 80 80 NW 13 20 30 1016 4 6.43736 0 0.0254
4:56 pm 16:56 Cloudy with Light Snow 22 -5.6 16 -8.9 78 78 NW 10 17 29.95 1014 9 14.48406 0 0.0254
5:56 pm 17:56 Mostly Cloudy 20 -6.7 12 -11.1 71 71 WNW 16 26 29.97 1015 10 16.0934 0 0.0254
6:56 pm 18:56 Cloudy with Light Snow 20 -6.7 12 -11.1 71 71 WNW 17 28 29.99 1016 9 14.48406 0 0.0254
7:56 pm 19:56 Cloudy with Light Snow 20 -6.7 12 -11.1 71 71 WNW 18 30 30 1016 10 16.0934 0 0.0254
8:56 pm 20:56 Cloudy 19 -7.2 11 -11.7 71 71 WNW 13 20 30 1016 10 16.0934 0 0.0254
9:56 pm 21:56 Cloudy 19 -7.2 10 -12.2 68 68 WNW 15 24 30 1016 10 16.0934 0 0
10:56 pm 22:56 Cloudy 19 -7.2 10 -12.2 68 68 W 14 22 30 1016 10 16.0934 0 0
11:56 pm 23:56 Cloudy 19 -7.2 10 -12.2 68 68 W 10 17 29.98 1015 10 16.0934 0 0

Powered by AerisWeather